Date String (YYYY-MM-DD hh:mm:ss) UTC,Instrument flags,absolute air pressure of the measurement (hPa),sample flow rate (lpm),inlet stack bypass flow (lpm),air temperature of the measurement (°C),ambient temperature measured by the external sensor (°C),aerosol sample conditioner tube jacket temperature (°C),OPC LED temperature (°C),internal box temperature (°C),relative humidity of the measurement (%),span deviation,mass concentration of particles derived from Lorenz-Mie calculation of OPC scattering (μg/m³),mass concentration of particles derived from Lorenz-Mie calculation of OPC scattering (μg/m³),mass concentration of particles derived from Lorenz-Mie calculation of OPC scattering (μg/m³)
DateTimeUTC,F1_M11,P_M11,Q1_M11,Q2_M11,T1_M11,T2_M11,T3_M11,T4_M11,T5_M11,U1_M11,ZSPAN_M11,X0_M11,X2_M11,X1_M11
2023-10-30 05:00:00,SystemResetWarning,0839.2,4.99,000.00,021.1,019.9,000.0,029.5,022.4,9.4,0000.0,0007.85,0005.78,0005.63
2023-10-30 05:01:00,SystemResetWarning,0839.2,5.00,000.00,021.0,019.8,000.0,029.5,022.3,9.4,0000.0,0007.80,0005.74,0005.59
2023-10-30 05:02:00,SystemResetWarning,0839.3,5.00,000.00,021.0,019.7,000.0,029.5,022.2,9.4,0000.0,0007.71,0005.69,0005.55
2023-10-30 05:03:00,SystemResetWarning,0839.2,5.01,000.00,021.0,019.8,000.0,029.5,022.4,9.4,0000.0,0007.61,0005.65,0005.53
2023-10-30 05:04:00,SystemResetWarning,0839.3,5.01,000.00,021.1,020.6,000.0,029.4,022.8,9.4,0000.0,0007.62,0005.65,0005.51
2023-10-30 05:05:00,SystemResetWarning,0839.4,4.99,000.00,021.2,021.3,000.0,029.4,023.1,9.3,0000.0,0007.60,0005.62,0005.49
2023-10-30 05:06:00,SystemResetWarning,0839.3,4.99,000.00,021.3,021.3,000.0,029.5,023.0,9.3,0000.0,0007.60,0005.60,0005.46
2023-10-30 05:07:00,SystemResetWarning,0839.3,5.00,000.00,021.3,021.0,000.0,029.5,022.8,9.3,0000.0,0007.59,0005.58,0005.44
2023-10-30 05:08:00,SystemResetWarning,0839.3,4.99,000.00,021.3,020.8,000.0,029.5,022.7,9.3,0000.0,0007.58,0005.57,0005.44
2023-10-30 05:09:00,SystemResetWarning,0839.2,5.00,000.00,021.2,020.5,000.0,029.5,022.6,9.3,0000.0,0007.57,0005.59,0005.45
2023-10-30 05:10:00,SystemResetWarning,0839.2,5.00,000.00,021.2,020.3,000.0,029.5,022.4,9.3,0000.0,0007.54,0005.57,0005.44
2023-10-30 05:11:00,SystemResetWarning,0839.2,5.00,000.00,021.1,020.1,000.0,029.5,022.4,9.3,0000.0,0007.50,0005.55,0005.42
2023-10-30 05:12:00,SystemResetWarning,0839.2,5.00,000.00,021.1,019.9,000.0,029.5,022.3,9.3,0000.0,0007.50,0005.54,0005.42
2023-10-30 05:13:00,SystemResetWarning,0839.2,5.00,000.00,021.0,019.8,000.0,029.5,022.3,9.3,0000.0,0007.50,0005.53,0005.41
2023-10-30 05:14:00,SystemResetWarning,0839.2,5.00,000.00,021.0,019.7,000.0,029.5,022.2,9.4,0000.0,0007.51,0005.53,0005.39
2023-10-30 05:15:00,SystemResetWarning,0839.2,5.00,000.00,021.0,020.0,000.0,029.4,022.5,9.3,0000.0,0007.49,0005.50,0005.36
2023-10-30 05:16:00,SystemResetWarning,0839.3,5.02,000.00,021.2,020.8,000.0,029.4,023.0,9.3,0000.0,0007.43,0005.45,0005.31
2023-10-30 05:17:00,SystemResetWarning,0839.3,5.00,000.00,021.3,021.4,000.0,029.4,023.2,9.2,0000.0,0007.38,0005.42,0005.28
2023-10-30 05:18:00,SystemResetWarning,0839.3,4.99,000.00,021.3,021.2,000.0,029.5,023.0,9.2,0000.0,0007.34,0005.40,0005.26
2023-10-30 05:19:00,SystemResetWarning,0839.3,5.00,000.00,021.3,021.0,000.0,029.5,022.8,9.2,0000.0,0007.30,0005.37,0005.23
2023-10-30 05:20:00,SystemResetWarning,0839.3,5.01,000.00,021.3,020.7,000.0,029.5,022.7,9.2,0000.0,0007.17,0005.31,0005.18
2023-10-30 05:21:00,SystemResetWarning,0839.2,5.00,000.00,021.2,020.4,000.0,029.6,022.5,9.3,0000.4,0007.26,0005.26,0005.13
2023-10-30 05:22:00,SystemResetWarning,0839.2,5.00,000.00,021.2,020.2,000.0,029.6,022.5,9.3,0000.0,0007.62,0005.23,0005.10
2023-10-30 05:23:00,SystemResetWarning,0839.2,5.00,000.00,021.1,020.1,000.0,029.6,022.4,9.3,0000.0,0007.58,0005.20,0005.07
2023-10-30 05:24:00,SystemResetWarning,0839.2,5.00,000.00,021.1,019.9,000.0,029.5,022.3,9.3,0000.0,0007.56,0005.16,0005.03
2023-10-30 05:25:00,SystemResetWarning,0839.2,5.01,000.00,021.0,019.8,000.0,029.5,022.3,9.3,0000.0,0007.53,0005.12,0004.99
2023-10-30 05:26:00,SystemResetWarning,0839.2,5.00,000.00,021.0,019.7,000.0,029.5,022.3,9.3,0000.0,0007.43,0005.06,0004.96
2023-10-30 05:27:00,SystemResetWarning,0839.2,5.02,000.00,021.1,020.2,000.0,029.4,022.7,9.3,0000.0,0007.49,0005.05,0004.96
2023-10-30 05:28:00,SystemResetWarning,0839.2,5.00,000.00,021.2,021.0,000.0,029.4,023.1,9.2,0000.0,0007.48,0005.03,0004.95
2023-10-30 05:29:00,SystemResetWarning,0839.2,4.99,000.00,021.3,021.3,000.0,029.5,023.1,9.2,0000.0,0007.45,0005.02,0004.94
2023-10-30 05:30:00,SystemResetWarning,0839.2,4.99,000.00,021.3,021.0,000.0,029.5,022.9,9.2,0000.0,0007.40,0004.99,0004.92
2023-10-30 05:31:00,SystemResetWarning,0839.2,5.00,000.00,021.3,020.8,000.0,029.5,022.8,9.2,0000.0,0007.40,0004.98,0004.91
2023-10-30 05:32:00,SystemResetWarning,0839.2,5.00,000.00,021.2,020.6,000.0,029.6,022.6,9.2,0000.0,0007.32,0004.96,0004.90
2023-10-30 05:33:00,SystemResetWarning,0839.2,5.00,000.00,021.2,020.4,000.0,029.6,022.5,9.2,0000.0,0006.59,0004.97,0004.90
2023-10-30 05:34:00,SystemResetWarning,0839.2,5.00,000.00,021.2,020.2,000.0,029.6,022.5,9.2,0000.0,0006.64,0004.98,0004.90
2023-10-30 05:35:00,SystemResetWarning,0839.2,5.00,000.00,021.1,020.0,000.0,029.6,022.4,9.2,0000.0,0006.67,0004.98,0004.90
2023-10-30 05:36:00,SystemResetWarning,0839.1,5.00,000.00,021.1,019.9,000.0,029.5,022.3,9.2,0000.0,0006.69,0004.99,0004.91
2023-10-30 05:37:00,SystemResetWarning,0839.1,5.00,000.00,021.0,019.8,000.0,029.5,022.3,9.3,0000.0,0006.71,0005.00,0004.92
2023-10-30 05:38:00,SystemResetWarning,0839.2,5.01,000.00,021.1,020.0,000.0,029.5,022.6,9.3,0000.0,0006.65,0005.00,0004.91
2023-10-30 05:39:00,SystemResetWarning,0839.2,5.02,000.00,021.2,020.9,000.0,029.4,023.0,9.2,0000.0,0006.63,0005.00,0004.91
2023-10-30 05:40:00,SystemResetWarning,0839.2,4.99,000.00,021.3,021.4,000.0,029.4,023.2,9.1,0000.0,0006.60,0004.99,0004.90
2023-10-30 05:41:00,SystemResetWarning,0839.2,4.99,000.00,021.3,021.2,000.0,029.5,023.0,9.1,0000.0,0006.65,0005.00,0004.89
2023-10-30 05:42:00,SystemResetWarning,0839.2,5.00,000.00,021.3,020.9,000.0,029.5,022.8,9.1,0000.0,0006.68,0005.00,0004.88
2023-10-30 05:43:00,SystemResetWarning,0839.1,5.00,000.00,021.3,020.7,000.0,029.6,022.7,9.1,0000.0,0006.74,0005.00,0004.88
2023-10-30 05:44:00,SystemResetWarning,0839.1,5.00,000.00,021.2,020.4,000.0,029.6,022.6,9.1,0000.0,0006.74,0004.99,0004.86
2023-10-30 05:45:00,SystemResetWarning,0839.1,5.00,000.00,021.2,020.2,000.0,029.6,022.5,9.2,0000.0,0006.73,0004.98,0004.85
2023-10-30 05:46:00,SystemResetWarning,0839.1,5.00,000.00,021.2,020.0,000.0,029.6,022.4,9.2,0000.0,0006.67,0004.96,0004.83
2023-10-30 05:47:00,SystemResetWarning,0839.0,5.00,000.00,021.1,019.9,000.0,029.6,022.4,9.2,0000.0,0006.67,0004.95,0004.81
2023-10-30 05:48:00,SystemResetWarning,0839.0,5.01,000.00,021.1,019.7,000.0,029.5,022.3,9.2,0000.0,0006.63,0004.93,0004.80
2023-10-30 05:49:00,SystemResetWarning,0839.0,5.01,000.00,021.1,019.9,000.0,029.5,022.5,9.2,0000.0,0006.57,0004.91,0004.78
2023-10-30 05:50:00,SystemResetWarning,0839.1,5.01,000.00,021.2,020.8,000.0,029.4,023.0,9.2,0000.0,0006.52,0004.89,0004.76
2023-10-30 05:51:00,SystemResetWarning,0839.1,5.00,000.00,021.3,021.4,000.0,029.5,023.2,9.1,0000.0,0006.52,0004.87,0004.74
2023-10-30 05:52:00,SystemResetWarning,0839.1,4.99,000.00,021.3,021.3,000.0,029.5,023.0,9.1,0000.0,0006.44,0004.84,0004.72
2023-10-30 05:53:00,SystemResetWarning,0839.1,5.00,000.00,021.3,021.0,000.0,029.6,022.8,9.1,0000.0,0006.41,0004.83,0004.70
2023-10-30 05:54:00,SystemResetWarning,0839.1,5.01,000.00,021.3,020.7,000.0,029.6,022.7,9.1,0000.0,0006.39,0004.82,0004.69
2023-10-30 05:55:00,SystemResetWarning,0839.1,5.00,000.00,021.3,020.5,000.0,029.6,022.6,9.2,0000.0,0006.38,0004.79,0004.67
2023-10-30 05:56:00,SystemResetWarning,0839.1,5.00,000.00,021.2,020.3,000.0,029.6,022.5,9.2,0000.0,0006.35,0004.78,0004.65
2023-10-30 05:57:00,SystemResetWarning,0839.1,4.99,000.00,021.2,020.1,000.0,029.6,022.5,9.2,0000.0,0006.29,0004.76,0004.63
2023-10-30 05:58:00,SystemResetWarning,0839.1,4.99,000.00,021.1,020.0,000.0,029.6,022.4,9.2,0000.0,0006.22,0004.73,0004.62
2023-10-30 05:59:00,SystemResetWarning,0839.0,5.01,000.00,021.1,019.8,000.0,029.6,022.4,9.2,0000.0,0006.22,0004.73,0004.61
